Montevideo, MN

3:54 PM CST on February 06, 2016 (GMT -0600)
Montevideo-Chippewa County

Weather History for KMVE - November, 2012

Change the Weather History Date:

Thursday, November 29, 2012

  Actual Average Record
Temperature  
Mean Temperature 28 °F -  
Max Temperature 39 °F - - ()
Min Temperature 17 °F - - ()
Degree Days  
Heating Degree Days 37    
Moisture  
Dew Point 23 °F    
Average Humidity 83    
Maximum Humidity 100    
Minimum Humidity 61    
Precipitation  
Precipitation 0.00 in - - ()
Sea Level Pressure  
Sea Level Pressure 30.05 in    
Wind  
Wind Speed 6 mph (East)    
Max Wind Speed 21 mph    
Max Gust Speed 20 mph    
Visibility 10 miles    
Events      
T = Trace of Precipitation, MM = Missing Value Source: NWS Daily Summary

Daily Weather History Graph

Daily Weather History Graph

Search for Another Location

Airport or City:

Trip Planner

Search our weather history database for the weather conditions in past years. The results will help you decide how hot, cold, wet, or windy it might be!

Date:

Astronomy

Nov. 29, 2012 Rise Set
Actual Time 7:39 AM CST 4:43 PM CST
Civil Twilight 7:06 AM CST 5:16 PM CST
Nautical Twilight 6:29 AM CST 5:52 PM CST
Astronomical Twilight 5:54 AM CST 6:28 PM CST
Moon 5:46 PM CST (11/29) 8:26 AM CST (11/29)
Length of Visible Light 10h 10m
Length of Day
9h 04m
Full, 99% of the Moon is Illuminated
Nov 29
Full
Dec 6
Last Quarter
Dec 13
New
Dec 19
First Quarter
Dec 28
Full

Hourly Weather History & Observations

Time (CST) Temp. Windchill Dew Point Humidity Pressure Visibility Wind Dir Wind Speed Gust Speed Precip Events Conditions
12:14 AM 28.4 °F 23.3 °F 23.0 °F 80% 30.03 in 10.0 mi South 4.6 mph - N/A   Clear
12:34 AM 28.4 °F 23.3 °F 23.0 °F 80% 30.03 in 10.0 mi SSW 4.6 mph - N/A   Clear
12:54 AM 26.6 °F 21.2 °F 23.0 °F 86% 30.03 in 10.0 mi SSW 4.6 mph - N/A   Clear
1:14 AM 26.6 °F 22.6 °F 23.0 °F 86% 30.03 in 10.0 mi SSW 3.5 mph - N/A   Clear
1:34 AM 24.8 °F - 21.2 °F 86% 30.03 in 10.0 mi Calm Calm - N/A   Clear
1:54 AM 24.8 °F - 21.2 °F 86% 30.03 in 10.0 mi Calm Calm - N/A   Clear
2:14 AM 24.8 °F - 21.2 °F 86% 30.04 in 10.0 mi Calm Calm - N/A   Clear
2:34 AM 21.2 °F - 19.4 °F 93% 30.04 in 10.0 mi Calm Calm - N/A   Clear
2:54 AM 19.4 °F - 17.6 °F 93% 30.04 in 10.0 mi Calm Calm - N/A   Clear
3:14 AM 19.4 °F - 17.6 °F 93% 30.04 in 10.0 mi Calm Calm - N/A   Clear
3:34 AM 17.6 °F 12.3 °F 17.6 °F 100% 30.04 in 10.0 mi ENE 3.5 mph - N/A   Clear
3:54 AM 19.4 °F 14.3 °F 17.6 °F 93% 30.04 in 10.0 mi NE 3.5 mph - N/A   Clear
4:14 AM 19.4 °F - 17.6 °F 93% 30.04 in 10.0 mi Calm Calm - N/A   Clear
4:34 AM 19.4 °F - 17.6 °F 93% 30.03 in 10.0 mi Calm Calm - N/A   Clear
4:54 AM 19.4 °F - 17.6 °F 93% 30.04 in 10.0 mi Calm Calm - N/A   Clear
5:14 AM 17.6 °F 10.7 °F 17.6 °F 100% 30.05 in 10.0 mi North 4.6 mph - N/A   Clear
5:34 AM 17.6 °F - 17.6 °F 100% 30.04 in 10.0 mi Calm Calm - N/A   Clear
5:54 AM 17.6 °F 12.3 °F 17.6 °F 100% 30.05 in 10.0 mi NNW 3.5 mph - N/A   Clear
6:14 AM 17.6 °F 9.3 °F 17.6 °F 100% 30.05 in 7.0 mi North 5.8 mph - N/A   Clear
6:34 AM 17.6 °F - 17.6 °F 100% 30.06 in 7.0 mi Calm Calm - N/A   Clear
6:54 AM 17.6 °F 10.7 °F 17.6 °F 100% 30.06 in 7.0 mi North 4.6 mph - N/A   Clear
7:14 AM 17.6 °F 10.7 °F 17.6 °F 100% 30.07 in 7.0 mi North 4.6 mph - N/A   Clear
7:34 AM 17.6 °F 10.7 °F 17.6 °F 100% 30.07 in 7.0 mi NNW 4.6 mph - N/A   Clear
7:54 AM 17.6 °F 9.3 °F 17.6 °F 100% 30.08 in 7.0 mi NNW 5.8 mph - N/A   Clear
8:14 AM 17.6 °F 9.3 °F 17.6 °F 100% 30.08 in 7.0 mi North 5.8 mph - N/A   Clear
8:34 AM 17.6 °F 10.7 °F 17.6 °F 100% 30.08 in 7.0 mi North 4.6 mph - N/A   Clear
8:54 AM 19.4 °F 14.3 °F 17.6 °F 93% 30.08 in 7.0 mi North 3.5 mph - N/A   Clear
9:14 AM 19.4 °F 14.3 °F 19.4 °F 100% 30.09 in 7.0 mi North 3.5 mph - N/A   Clear
9:34 AM 21.2 °F - 19.4 °F 93% 30.09 in 7.0 mi Calm Calm - N/A   Clear
10:14 AM 26.6 °F - 24.8 °F 93% 30.08 in 7.0 mi Calm Calm - N/A   Clear
10:34 AM 30.2 °F 23.4 °F 26.6 °F 86% 30.08 in 7.0 mi ESE 6.9 mph - N/A   Clear
10:54 AM 30.2 °F 22.6 °F 26.6 °F 86% 30.07 in 10.0 mi ESE 8.1 mph - N/A   Clear
11:14 AM 32.0 °F 24.8 °F 26.6 °F 80% 30.07 in 10.0 mi ESE 8.1 mph - N/A   Clear
11:34 AM 35.6 °F 28.0 °F 26.6 °F 70% 30.08 in 10.0 mi ESE 10.4 mph - N/A   Clear
11:54 AM 35.6 °F 28.0 °F 26.6 °F 70% 30.07 in 10.0 mi East 10.4 mph - N/A   Clear
12:14 PM 35.6 °F 27.5 °F 26.6 °F 70% 30.06 in 10.0 mi ESE 11.5 mph - N/A   Clear
12:34 PM 37.4 °F 29.3 °F 26.6 °F 65% 30.05 in 10.0 mi ESE 12.7 mph - N/A   Clear
12:54 PM 37.4 °F 30.3 °F 26.6 °F 65% 30.05 in 10.0 mi ESE 10.4 mph - N/A   Clear
1:14 PM 37.4 °F 30.3 °F 26.6 °F 65% 30.05 in 10.0 mi ESE 10.4 mph - N/A   Clear
1:34 PM 39.2 °F 32.5 °F 26.6 °F 61% 30.04 in 10.0 mi SE 10.4 mph - N/A   Clear
1:54 PM 39.2 °F 33.0 °F 26.6 °F 61% 30.03 in 10.0 mi ESE 9.2 mph - N/A   Clear
2:14 PM 39.2 °F 32.5 °F 26.6 °F 61% 30.03 in 10.0 mi ESE 10.4 mph - N/A   Clear
2:34 PM 39.2 °F 33.0 °F 26.6 °F 61% 30.03 in 10.0 mi SE 9.2 mph - N/A   Clear
2:54 PM 39.2 °F 32.5 °F 26.6 °F 61% 30.01 in 10.0 mi ESE 10.4 mph - N/A   Clear
3:14 PM 37.4 °F 30.3 °F 26.6 °F 65% 30.01 in 10.0 mi ESE 10.4 mph - N/A   Clear
3:34 PM 37.4 °F 31.4 °F 26.6 °F 65% 30.03 in 10.0 mi ESE 8.1 mph - N/A   Clear
3:54 PM 37.4 °F 29.8 °F 26.6 °F 65% 30.01 in 10.0 mi ESE 11.5 mph - N/A   Clear
4:14 PM 37.4 °F 30.3 °F 26.6 °F 65% 30.02 in 10.0 mi ESE 10.4 mph - N/A   Clear
4:34 PM 35.6 °F 29.2 °F 26.6 °F 70% 30.04 in 10.0 mi East 8.1 mph - N/A   Clear
4:54 PM 33.8 °F 27.0 °F 26.6 °F 75% 30.04 in 10.0 mi East 8.1 mph - N/A   Clear
5:14 PM 32.0 °F 24.8 °F 24.8 °F 75% 30.06 in 10.0 mi East 8.1 mph - N/A   Clear
5:34 PM 32.0 °F 23.0 °F 24.8 °F 75% 30.04 in 10.0 mi ESE 11.5 mph - N/A   Clear
5:54 PM 32.0 °F 22.5 °F 26.6 °F 80% 30.05 in 10.0 mi ESE 12.7 mph - N/A   Clear
6:14 PM 33.8 °F 24.3 °F 26.6 °F 75% 30.04 in 10.0 mi ESE 13.8 mph - N/A   Clear
6:34 PM 32.0 °F 23.6 °F 26.6 °F 80% 30.06 in 10.0 mi East 10.4 mph - N/A   Clear
6:54 PM 32.0 °F 23.0 °F 26.6 °F 80% 30.06 in 10.0 mi ESE 11.5 mph - N/A   Clear
7:14 PM 32.0 °F 22.1 °F 26.6 °F 80% 30.06 in 10.0 mi ESE 13.8 mph - N/A   Clear
7:34 PM 32.0 °F 21.2 °F 26.6 °F 80% 30.05 in 10.0 mi ESE 16.1 mph - N/A   Scattered Clouds
7:54 PM 32.0 °F 19.8 °F 26.6 °F 80% 30.02 in 10.0 mi ESE 20.7 mph - N/A   Mostly Cloudy
8:14 PM 32.0 °F 21.6 °F 26.6 °F 80% 30.04 in 10.0 mi ESE 15.0 mph - N/A   Mostly Cloudy
8:34 PM 32.0 °F 24.2 °F 26.6 °F 80% 30.08 in 10.0 mi ESE 9.2 mph - N/A   Mostly Cloudy
8:54 PM 32.0 °F 24.2 °F 26.6 °F 80% 30.08 in 10.0 mi ESE 9.2 mph - N/A   Overcast
9:14 PM 30.2 °F 21.9 °F 26.6 °F 86% 30.08 in 10.0 mi ESE 9.2 mph - N/A   Overcast
9:34 PM 30.2 °F 20.8 °F 26.6 °F 86% 30.08 in 10.0 mi ESE 11.5 mph - N/A   Mostly Cloudy
9:48 PM 30.2 °F 19.8 °F 26.6 °F 86% 30.08 in 10.0 mi East 13.8 mph - N/A   Scattered Clouds
10:14 PM 32.0 °F 23.0 °F 26.6 °F 80% - 10.0 mi ESE 11.5 mph - N/A   Overcast
10:34 PM 30.2 °F 21.3 °F 26.6 °F 86% 30.09 in 10.0 mi East 10.4 mph - N/A   Mostly Cloudy
10:54 PM 30.2 °F 21.9 °F 26.6 °F 86% 30.09 in 10.0 mi East 9.2 mph - N/A   Mostly Cloudy
11:14 PM 30.2 °F 20.2 °F 26.6 °F 86% 30.08 in 10.0 mi East 12.7 mph - N/A   Mostly Cloudy
11:34 PM 30.2 °F 19.3 °F 26.6 °F 86% 30.07 in 10.0 mi East 15.0 mph - N/A   Overcast
11:54 PM 28.4 °F 17.0 °F 26.6 °F 93% 30.07 in 10.0 mi ESE 15.0 mph 19.6 mph N/A   Mostly Cloudy